Home   Weather   Saint-Denis   Past weeks
Flag for Réunion (French)

Past Weather in Saint-Denis, Réunion (French) — Yesterday and Last 2 Weeks

Now
72 °F

Overcast.


Feels Like: 74 °F
Forecast: 75 / 66 °F
Wind: 5 mph from Northwest

Location: Saint-Denis / Gillot

Current Time: Sep 17, 2019 at 8:40:56 pm

Latest Report: Sep 17, 2019 at 8:00 pm


Visibility: N/A

Pressure: 30.04 "Hg

Humidity: 73%

Dew Point: 63 °F

Location of Saint-DenisLocation

Past Weather in Saint-Denis — Graph

°F

Saint-Denis Temperature Yesterday

Maximum temperature yesterday: 81 °F (at 10:30 am)
Minimum temperature yesterday: 63 °F (at 4:30 am)
Average temperature yesterday: 72 °F

High & Low Weather Summary for the Past Weeks

 TemperatureHumidityPressure
High82 °F (Sep 7, 11:30 am)94% (Sep 14, 1:30 am)30.24 "Hg (Sep 14, 1:30 am)
Low63 °F (Sep 4, 3:00 am)48% (Sep 4, 9:00 am)30.01 "Hg (Sep 16, 2:30 pm)
Average72 °F68%30.12 "Hg
* Reported Sep 2 7:00 pm — Sep 17 7:30 pm, Saint-Denis. Weather by CustomWeather, © 2019

Note: Actual official high and low records may vary slightly from our data, if they occured in-between our weather recording intervals... More about our weather records

Advertising

Saint-Denis Weather History for the Previous 24 Hours

Scroll right to see more
 ConditionsComfort  
Time TempWeatherWind HumidityBarometerVisibility
7:30 pm
Tue, Sep 17
72 °FMostly cloudy.3 mph78%30.04 "HgN/A
7:00 pm72 °FOvercast.7 mph78%30.04 "HgN/A
6:30 pm72 °FOvercast.7 mph73%30.04 "HgN/A
6:00 pm73 °FOvercast.6 mph69%30.01 "HgN/A
5:30 pm72 °FMostly cloudy.7 mph73%30.01 "HgN/A
5:00 pm72 °FMostly cloudy.9 mph83%30.01 "HgN/A
4:30 pm72 °FLight rain. Overcast.12 mph83%30.01 "HgN/A
4:00 pm75 °FMostly cloudy.3 mph69%30.01 "HgN/A
3:30 pm77 °FMostly cloudy.6 mph65%30.01 "HgN/A
3:00 pm77 °FOvercast.5 mph61%30.01 "HgN/A
2:30 pm79 °FOvercast.6 mph58%30.01 "HgN/A
2:00 pm77 °FOvercast.3 mph65%30.01 "HgN/A
1:30 pm79 °FOvercast.3 mph61%30.01 "HgN/A
1:00 pm77 °FOvercast.3 mph65%30.04 "HgN/A
12:30 pm77 °FMostly cloudy.3 mph65%30.04 "HgN/A
12:00 pm79 °FMostly cloudy.5 mph58%30.04 "HgN/A
11:30 am81 °FPartly sunny.6 mph62%30.07 "HgN/A
11:00 am81 °FPartly sunny.6 mph58%30.07 "HgN/A
10:30 am81 °FPassing clouds.6 mph58%30.07 "HgN/A
10:00 am79 °FSunny.6 mph61%30.07 "Hg10 mi
9:30 am79 °FSunny.5 mph61%30.07 "Hg10 mi
9:00 am79 °FPassing clouds.3 mph61%30.07 "HgN/A
8:30 am77 °FSunny.1 mph61%30.07 "Hg10 mi
8:00 am73 °FSunny.3 mph57%30.07 "Hg10 mi
7:30 am70 °FSunny.6 mph64%30.04 "Hg10 mi
7:00 am66 °FSunny.7 mph68%30.04 "Hg10 mi
6:30 am64 °FSunny.7 mph73%30.04 "Hg10 mi
6:00 am64 °FClear.7 mph73%30.04 "Hg10 mi
5:30 am63 °FClear.8 mph77%30.04 "Hg10 mi
5:00 am64 °FClear.7 mph78%30.04 "Hg10 mi
4:30 am64 °FClear.9 mph78%30.04 "Hg10 mi
4:00 am64 °FClear.10 mph78%30.04 "Hg10 mi
3:30 am64 °FClear.9 mph78%30.04 "Hg10 mi
3:00 am64 °FClear.6 mph78%30.04 "Hg10 mi
2:30 am64 °FClear.8 mph78%30.04 "Hg10 mi
2:00 am64 °FClear.7 mph78%30.07 "Hg10 mi
1:30 am64 °FClear.7 mph83%30.07 "Hg10 mi
1:00 am66 °FClear.6 mph78%30.07 "Hg10 mi
12:30 am66 °FPassing clouds.6 mph78%30.07 "HgN/A
12:00 am66 °FClear.7 mph83%30.07 "Hg10 mi
11:30 pm
Mon, Sep 16
66 °FClear.7 mph83%30.07 "Hg10 mi
11:00 pm66 °FClear.6 mph83%30.07 "Hg10 mi
10:30 pm68 °FPassing clouds.6 mph83%30.09 "HgN/A
10:00 pm68 °FClear.9 mph83%30.07 "Hg10 mi
9:30 pm70 °FPassing clouds.8 mph78%30.09 "HgN/A
9:00 pm70 °FMostly cloudy.6 mph78%30.09 "HgN/A
8:30 pm72 °FMostly cloudy.5 mph78%30.07 "HgN/A
8:00 pm72 °FMostly cloudy.5 mph78%30.07 "HgN/A
Weather by CustomWeather, © 2019

See weather overview